Meteo Giornale » Osservazioni meteo Stati Uniti (USA) » San Diego North Island
ore: 09:52 - Osservazioni Meteo San Diego North Island
Lat. 32° 41' N Lon. 117° 12' W Alt. 7 metri s.l.m.
23 °C
Nuvoloso
Temp. 24 Ore
21 °C
24 °C
Ovest/Nord-Ovest
13 Km/h
Dew point 18 °C
Umidità 73 %
Visibilità 10 Km
Il sole sorge alle ore 06:23
Il sole tramonta alle ore 19:13
| Data e Ora | Cielo e Fenomeni | T °C | DP °C | Um. % | Pres. hPa | Vis. km | Vento km/h | |
|---|---|---|---|---|---|---|---|---|
| Oggi h: 09:52 | Nuvoloso | 23 | 18 | 73 | 1015 | 10 | O/NO 13 | |
| Oggi h: 09:47 | Nuvoloso | 23 | 18 | 73 | 1015 | 10 | NO 14.8 | |
| Oggi h: 08:52 | Molto Nuvoloso | 22 | 18 | 78 | 1015 | 10 | O/NO 11.1 | |
| Oggi h: 07:52 | Molto Nuvoloso | 22 | 18 | 78 | 1014 | 10 | O/NO 11.1 | |
| Oggi h: 06:52 | Molto Nuvoloso | 21 | 18 | 82 | 1014 | 10 | O/NO 11.1 | |
| Oggi h: 05:52 | Molto Nuvoloso | 21 | 18 | 82 | 1014 | 10 | N 5.5 | |
| Oggi h: 04:52 | Molto Nuvoloso | 21 | 18 | 82 | 1014 | 10 | NO 7.4 | |
| Oggi h: 03:52 | Molto Nuvoloso | 21 | 18 | 82 | 1014 | 10 | NO 11.1 | |
| Oggi h: 02:52 | Nuvoloso | 21 | 18 | 82 | 1014 | 10 | NO 7.4 | |
| Oggi h: 01:52 | Molto Nuvoloso | 21 | 18 | 82 | 1014 | 10 | N 5.5 | |
| Oggi h: 00:52 | Nuvoloso | 21 | 18 | 82 | 1014 | 10 | O/NO 7.4 | |
| Ieri h: 23:52 | Poco Nuvoloso | 21 | 17 | 77 | 1014 | 10 | NO 9.3 | |
| Ieri h: 22:52 | Poco Nuvoloso | 21 | 18 | 82 | 1014 | 10 | NO 11.1 | |
| Ieri h: 21:52 | Poco Nuvoloso | 22 | 18 | 78 | 1014 | 10 | NO 11.1 | |
| Ieri h: 20:52 | Poco Nuvoloso | 22 | 17 | 73 | 1013 | 10 | NO 13 | |
| Ieri h: 19:52 | Poco Nuvoloso | 22 | 18 | 78 | 1012 | 10 | NO 14.8 | |
| Ieri h: 18:52 | Poco Nuvoloso | 22 | 18 | 78 | 1012 | 10 | O/NO 14.8 | |
| Ieri h: 17:52 | Poco Nuvoloso | 23 | 17 | 68 | 1012 | 10 | NO 16.7 | |
| Ieri h: 16:52 | Poco Nuvoloso | 24 | 18 | 69 | 1012 | 10 | NO 16.7 | |
| Ieri h: 15:52 | Poco Nuvoloso | 24 | 18 | 69 | 1012 | 10 | O 16.7 | |
| Ieri h: 14:52 | Poco Nuvoloso | 24 | 18 | 69 | 1013 | 10 | O/NO 16.7 | |
| Ieri h: 13:52 | Poco Nuvoloso | 24 | 18 | 69 | 1013 | 14 | O 18.5 | |
| Ieri h: 12:52 | Sereno | 24 | 18 | 69 | 1014 | 14 | O 18.5 | |
| Ieri h: 11:52 | Sereno | 24 | 18 | 69 | 1014 | 14 | O 18.5 | |
| Ieri h: 10:52 | Sereno | 24 | 18 | 69 | 1014 | 14 | O/SO 16.7 | |



